Location: Grange Rosano
(44.4500°N, 6.9667°E)
Time: 21:21:20
(UTC+00:00)

Cosmos 2084 Rocket - Pass Details

Date: 26 May 2022
Orbit: 497 x 678 km, 62.8° (Epoch: 01 July)

Event Time Altitude Azimuth Distance (km) Brightness Sun altitude
Exits shadow 01:49:46 26° 264° (W) 1,005 4.3 -17.0°
Maximum altitude 01:51:19 40° 314° (NW) 752 4.0 -16.8°
Drops below altitude 10° 01:54:54 10° 26° (NNE) 1,705 7.1 -16.5°
Sets 01:57:10 0° 34° (NNE) 2,596 8.6 -16.2°
